Location: Marcé
(47.5801°N, 0.3280°W)
Time: 16:32:14
(UTC+01:00)

SR - Pass Details

Date: 05 December 2021
Orbit: 582 x 872 km, 66.7° (Epoch: 22 January)

Event Time Altitude Azimuth Distance (km) Brightness Sun altitude
Rises 08:23:04 0° 327° (NNW) 2,819 - -2.3°
Exits shadow 08:23:06 - 327° (NNW) 2,806 ? -2.3°
Reaches altitude 10° 08:25:18 10° 330° (NNW) 1,927 ? -2.0°
Maximum altitude 08:29:34 67° 53° (NE) 664 ? -1.4°
Drops below altitude 10° 08:34:04 10° 137° (SE) 2,016 ? -0.7°
Sets 08:36:26 0° 140° (SE) 2,963 ? -0.4°
